OIIS  Semnan Airport

Add Bookmark

Semnan, Iran

Status
Operational
Latitude Longitude
35° 35' 27" N 53° 29' 42" E
35.591099 53.495098
Local (DST + 5) UTC (GMT + 4)
Oct 23, 2014 08:39 Oct 23, 2014 05:09
Sunrise-Sunset Local UTC
Begin Civil Twilight 05:42 02:12
Sunrise 06:08 02:38
Sunset 05:12 13:42
End Civil Twilight 05:38 14:08

Current Weather

METAR Observed VFR
OIIS 230200Z 34004KT CAVOK 11/06 Q1020 Thu, Oct 23, 2014 @ 02:00 UTC
(3 Hours, 9 Minutes ago)
Visual Flight Rules
Wind Visibility Clouds Conditions
340° at 4 knots (7 kph) 10 km or more
  • Clear skies
  • No significant weather
Temperatures Readings Precipitation
Current Temp 11°C (52°F)
Dewpoint 6°C (43°F)
Humidity 72%
Altimeter 30.12"Hg
Sea Level Pressure 1020mb
Field Elevation 3658.14'
None Recorded

Additional weather within a 185.2km radius of OIIS

Map ICAO Location
OINZ 119.3km N (347°)
OINB 146.5km N (329°)
OING 167.4km N (029°)

24 Hour Weather History

Loading
-

24 Hour Weather Graphs

Loading
-

CheckWX.com is intended as a tool to help pilots better visualize weather data. It is not intended as a substitute for an official weather briefing obtained from a Flight Service Station. CheckWX.com does not meet the FAA requirements for an official pre-flight weather briefing. Therefore, it's important that pilots still call and obtain an official FSS pre-flight weather briefing.